Weather Roundup
Issued by NWS Chicago, IL

Home | Current Version | Previous Version | Graphics & Text | Print | Product List | Glossary On
Versions: 1 2 3 4 5 6 7 8 9 10 11 12 13 14 15 16 17 18 19 20 21 22 23 24 25 26 27 28 29 30 31 32 33 34 35 36 37 38 39 40 41 42 43 44 45 46 47 48 49 50
000
NZUS59 KLOT 270306
HRRLOT

CHICAGO AREA WEATHER ROUNDUP
NATIONAL WEATHER SERVICE CHICAGO/ROMEOVILLE IL
900 PM CST FRI DEC 26 2014

NOTE: "FAIR" INDICATES FEW OR NO CLOUDS BELOW 12,000 FEET WITH NO
SIGNIFICANT WEATHER AND/OR OBSTRUCTIONS TO VISIBILITY.

* THESE STATIONS ARE NOT UNDER NWS QUALITY CONTROL. THEY ALSO MAY NOT
  REPORT WEATHER SUCH AS PRECIPITATION OR FOG.

ILZ005-006-012>014-019>023-270400-
NORTHEAST ILLINOIS

CITY           SKY/WX    TMP DP  RH WIND       PRES   REMARKS
OHARE          CLOUDY    47  41  80 S7        30.03R
MIDWAY         CLOUDY    50  42  74 S8        30.04R
AURORA         CLOUDY    46  40  79 S10       30.02S
LANSING*       CLOUDY    47  43  84 S9        30.05S
JOLIET*        MOCLDY    46  42  85 S5        30.03F
WAUKEGAN       CLOUDY    44  38  79 S6        30.02R
DUPAGE AIRPORT CLOUDY    46  41  82 S10       30.01S
WHEELING       CLOUDY    44  39  82 S6        30.04S
KANKAKEE*      PTCLDY    44  41  91 S6        30.06R
MORRIS*        PTCLDY    41  40  97 SE8       30.01F
LEWIS AIRPORT* CLOUDY    46  42  89 S7        30.04S
NORTHERLY IS     N/A     49  40  71 SW8         N/A
$$

WIZ051-052-058>065-066-070>072-270400-
SOUTHEAST WISCONSIN

CITY           SKY/WX    TMP DP  RH WIND       PRES   REMARKS
MILWAUKEE      MOCLDY    39  34  82 CALM      30.01R
KENOSHA*       CLOUDY    42  37  82 S3        30.02R
RACINE*        CLOUDY    41  36  82 S3        30.03R
BURLINGTON     PTCLDY    33  32  97 CALM      30.02R
WAUKESHA       MOCLDY    36  34  93 CALM      30.02R
WEST BEND      CLOUDY    32  32 100 CALM      30.01S
$$

INZ001>003-010>013-019-020-270400-
NORTHWEST INDIANA

CITY           SKY/WX    TMP DP  RH WIND       PRES   REMARKS
GARY*          CLOUDY    50  40  67 S7        30.05S
MICHIGAN CITY* NOT AVBL
RENSSELAER*    NOT AVBL
VALPARAISO     CLOUDY    46  41  82 S7        30.07R
$$

LMZ740>746-270400-
SOUTHERN LAKE MICHIGAN

STATION/POSITION TIME  SKY/WX   TEMP WIND        PRES    VSBY
                                AIR  DIR/SP/G
                 (UTC)          (F)  (DEG/KT/KT) (MB)    (MI)
HARRISON CRIB    0300            49  200/ 15/ 19   N/A
BURNHAM HARBOR   0300            49  190/ 10/ 11   N/A
CALUMET HARBOR   0200            48  180/  7/ 12 1016.0R
BURNS HARBOR     NOT AVBL
MICHIGAN CITY    0300            48  180/  9/ 11   N/A
$$

ABBREVIATIONS USED IN REMARKS
   TC - TEMPERATURE IN CELSIUS
  WCI - WIND CHILL INDEX
   HX - HEAT INDEX
  VSB - VISIBILITY
$$


USA.gov is the U.S. government's official web portal to all federal, state and local government web resources and services.